Location: Blackbird State Forest
(39.3478°N, 75.6771°W)
Time: 14:50:52
(UTC-04:00)

Hubble Space Telescope - Visible Passes

Search period start: 08 June 2026 00:00
Search period end: 18 June 2026 00:00
Orbit: 473 x 475 km, 28.5° (Epoch: 7 June)

Date Brightness Start Highest point End Pass type
(mag) Time Alt. Az. Time Alt. Az. Time Alt. Az.
8 Jun 2.5 21:42:26 10° SSW 21:43:58 13° S 21:43:58 13° S visible
9 Jun 2.5 21:10:42 10° SSW 21:12:30 13° S 21:14:17 10° SE visible
10 Jun 2.7 22:17:33 10° SW 22:18:26 13° SSW 22:18:26 13° SSW visible
11 Jun 2.4 21:45:46 10° SW 21:47:59 15° S 21:48:27 15° S visible
12 Jun 2.5 21:13:58 10° SW 21:16:12 15° S 21:18:22 10° SSE visible
